Location: Maignaut
(43.8886°N, 0.4051°E)
Time: 02:42:20
(UTC+00:00)

Cosmos 2344 - Pass Details

Date: 17 January 2021
Orbit: 1243 x 2999 km, 63.3° (Epoch: 04 March)

Event Time Altitude Azimuth Distance (km) Brightness Sun altitude
Rises 19:12:50 0° 321° (NW) 4,484 6.9 -25.5°
Reaches altitude 10° 19:15:36 10° 327° (NNW) 3,642 6.3 -26.0°
Maximum altitude 19:24:24 50° 43° (NE) 2,220 4.5 -27.6°
Enters shadow 19:26:38 45° 74° (ENE) 2,452 4.5 -28.0°
